Location: Gold Fund Mine
(38.3819°N, 119.0996°W)
Time: 23:17:43
(UTC+00:00)

Landsat 5 - Pass Details

Date: 18 September 2020
Orbit: 528 x 655 km, 98.2° (Epoch: 20 October)

Event Time Altitude Azimuth Distance (km) Brightness Sun altitude
Rises 12:26:38 0° 190° (S) 2,950 6.8 -15.3°
Reaches altitude 10° 12:29:02 10° 201° (SSW) 2,052 5.9 -14.8°
Maximum altitude 12:33:00 31° 263° (W) 1,158 4.4 -14.0°
Drops below altitude 10° 12:37:01 10° 325° (NW) 2,066 6.0 -13.3°
Sets 12:39:27 0° 336° (NNW) 2,975 6.9 -12.8°
